Regional Weather Roundup
Issued by NWS

Home | Current Version | Previous Version | Graphics & Text | Print | Product List | Glossary Off
Versions: 1 2 3 4 5 6 7 8 9 10 11 12 13 14 15 16 17 18 19 20 21 22 23 24 25 26 27 28 29 30 31 32 33 34 35 36 37 38 39 40 41 42 43 44 45 46 47 48 49 50

000
ASUS43 KMKX 300411
RWRWI

WISCONSIN REGIONAL WEATHER ROUNDUP
NATIONAL WEATHER SERVICE MILWAUKEE/SULLIVAN WI
1100 PM CDT TUE JUL 29 2014

NOTE: "FAIR" INDICATES FEW OR NO CLOUDS BELOW 12,000 FEET WITH NO
SIGNIFICANT WEATHER AND/OR OBSTRUCTIONS TO VISIBILITY.

WIZ001-002-006>008-014>016-023>028-300500-
NORTHWEST WISCONSIN

CITY           SKY/WX    TMP DP  RH WIND       PRES   REMARKS
SUPERIOR ARPT  DRIZZLE   58  57  97 SW7       30.04F
ASHLAND        PTCLDY    55  54  96 W5        30.04R
HAYWARD        MOCLDY    59  58  96 CALM      30.05R
SIREN          LGT RAIN  61  59  94 S3        30.06F
RICE LAKE      LGT RAIN  60  58  92 W5        30.08R
LADYSMITH      MOCLDY    59  57  93 CALM      30.05F
EAU CLAIRE     MOCLDY    59  58  96 CALM      30.03F
MENOMONIE      CLOUDY    61  58  90 SW5       30.05S
NEW RICHMOND   CLEAR     61  55  80 SW3       30.06F
OSCEOLA        PTCLDY    61  57  87 CALM      30.09S
$$

WIZ003>005-009-010-017-018-300500-
NORTH CENTRAL WISCONSIN

CITY           SKY/WX    TMP DP  RH WIND       PRES   REMARKS
WOODRUFF       PTCLDY    57  52  84 N3        30.03S
RHINELANDER    PTCLDY    56  55  97 NW3       30.03S
EAGLE RIVER    CLEAR     54  54  99 CALM      30.03S
LAND O LAKES   CLEAR     53  51  95 NE3       30.05R
PHILLIPS       MOCLDY    56  55  99 CALM      30.03R
TOMAHAWK       CLOUDY    54  53  97 CALM      30.03F
MEDFORD        MOCLDY    54  53  99 CALM      30.03S
MERRILL        PTCLDY    55  55  99 W5        30.02S
$$

WIZ029-030-035-036-043>047-300500-
CENTRAL WISCONSIN

CITY           SKY/WX    TMP DP  RH WIND       PRES   REMARKS
WAUSAU         PTCLDY    59  56  89 NW5       30.01R
MOSINEE        MOCLDY    57  54  88 NW5       30.03S
MARSHFIELD     CLOUDY    59  56  89 W7        30.02S
STEVENS POINT  CLOUDY    60  53  76 W5        30.02F
WAUPACA        CLOUDY    62  57  86 CALM      30.01S
WAUTOMA        CLOUDY    60  57  89 CALM      30.03S
WISC RAPIDS    LGT RAIN  61  57  87 CALM      30.04F
CAMP DOUGLAS   MOCLDY    59  59 100 W7        30.04F
$$

WIZ011>013-019>022-031-037>040-048>050-300500-
NORTHEAST WISCONSIN

CITY           SKY/WX    TMP DP  RH WIND       PRES   REMARKS
ANTIGO         PTCLDY    54  53  97 CALM      30.02S
STURGEON BAY   MOCLDY    57  55  94 NE5       29.99S
GREEN BAY      MOCLDY    60  59  96 W8        29.98S
MANITOWOC      MOCLDY    61  57  87 MISG      29.98S
APPLETON       MOCLDY    57  57 100 W10       30.00S
CLINTONVILLE   PTCLDY    59  55  88 CALM      29.99F
OSHKOSH        MOCLDY    59  57  93 VRB5      30.00S
$$

WIZ032>034-041-042-053>061-300500-
SOUTHWEST WISCONSIN

CITY           SKY/WX    TMP DP  RH WIND       PRES   REMARKS
LA CROSSE      CLOUDY    64  59  83 NW8       30.06R
SPARTA         MOCLDY    60  59  96 CALM      30.06F
VIROQUA        MOCLDY    59  59 100 CALM      30.07R
BOSCOBEL       CLOUDY    63  60  90 W7        30.06S
PRAIRIE DU CHI PTCLDY    64  56  77 CALM      30.06S
PLATTEVILLE    MOCLDY    62  59  92 CALM      30.07S
$$

WIZ056-057-062-063-064-067-068-300500-
SOUTH CENTRAL WISCONSIN

CITY           SKY/WX    TMP DP  RH WIND       PRES   REMARKS
BARABOO/DELLS  PTCLDY    57  55  91 CALM      30.03S
LONE ROCK      MOCLDY    65  60  84 E3        30.04S
WATERTOWN      CLEAR     56  56  99 CALM      30.02S
MADISON        MOCLDY    62  57  83 CALM      30.03F
MIDDLETON      FAIR      60  58  94 W6        30.05R
MONROE         CLOUDY    61  57  88 W8        30.05S
JANESVILLE     MOCLDY    61  55  82 E3        30.03S
$$

WIZ051-052-058>065-066-070>072-300500-
SOUTHEAST WISCONSIN

CITY           SKY/WX    TMP DP  RH WIND       PRES   REMARKS
MILWAUKEE      MOCLDY    61  58  90 W3        30.00F
WAUKESHA       PTCLDY    55  54  94 SW3       30.02S
MILWAUKEE/TIMM PTCLDY    57  54  88 W3        30.01S
RACINE         MOCLDY    60  58  92 W7        30.02F
BURLINGTON     MOCLDY    55  54  98 SW6       30.02F
KENOSHA        PTCLDY    58  57  97 SW6       30.02F
FOND DU LAC    PTCLDY    59  56  89 SW7       30.02R
SHEBOYGAN      MOCLDY    59  55  87 W3        29.99S
WEST BEND      PTCLDY    55  54  94 CALM      30.01R
JUNEAU         CLEAR     56  54  94 CALM      30.03S
$$

LSZ147-162-300500-
LAKE SUPERIOR

STATION/POSITION TIME  TEMP    WIND        PRES    WAVE
                       AIR SEA DIR/SP/G            HT/PER
                 (UTC) (F)     (DEG/KT/KT) (MB)    (FT/S)
W MID LAKE BUOY  0350   45 44   10/  8/  8 1017.2R   0
PORT WING        0300   59     200/  2/  2 1016.9S
SAXON HARBOR     0340             CALM     1017.3R
$$

LMZ867-665-643>646-300500-
LAKE MICHIGAN

STATION/POSITION TIME  TEMP    WIND        PRES    WAVE
                       AIR SEA DIR/SP/G            HT/PER
                 (UTC) (F)     (DEG/KT/KT) (MB)    (FT/S)
N MID LAKE BUOY  0350   57 54  340/  4/  6 1014.9R   0
NORTHPORT PIER   0300   62      CALM  /  1 1015.2R
SISTER BAY       0310   63     120/  2/  7   N/A
ALGOMA LAKESHORE 0321          340/  6/  7   N/A
KEWAUNEE LAKESHO 0300   60     290/  5/  7 1015.7R
SHEBOYGAN LAKESH 0400   63     270/ 13/ 15 1015.2S
PORT WASHINGTON  0300   61     270/  5/ 10 1015.9F
ATWATER BUOY     0400   62     240/  2     1016.8S
MILWAUKEE LAKESH 0300   62     230/  7/  8   N/A
S MID LAKE BUOY  0350   61 61  270/ 12/ 16 1015.8F   1
KENOSHA   LAKESH 0400   62     240/  7/  9 1015.9F
$$

TC  - TEMPERATURE IN CELSIUS
VSB - VISIBILITY IN STATUTE MILES
WCI - WIND CHILL INDEX
HX  - HEAT INDEX




USA.gov is the U.S. government's official web portal to all federal, state and local government web resources and services.